Location: Navajo
(48.7922°N, 105.0603°W)
Time: 10:07:20
(UTC+00:00)

ITUPSAT 1 - Visible Passes

Search period start: 30 June 2022 00:00
Search period end: 10 July 2022 00:00
Orbit: 700 x 712 km, 98.6° (Epoch: 29 June)

Date Brightness Start Highest point End Pass type
(mag) Time Alt. Az. Time Alt. Az. Time Alt. Az.
30 Jun ? 03:39:23 10° NNE 03:44:12 89° W 03:49:00 10° SSW visible
30 Jun ? 05:18:41 10° NNW 05:21:17 15° NW 05:23:53 10° W visible
01 Jul ? 04:23:30 10° N 04:27:55 37° WNW 04:32:18 10° SW visible
02 Jul ? 05:08:13 10° NNW 05:11:22 18° WNW 05:14:29 10° W visible
03 Jul ? 04:13:19 10° N 04:17:55 46° WNW 04:22:28 10° SW visible
04 Jul ? 04:57:52 10° NNW 05:01:25 21° WNW 05:04:57 10° WSW visible
05 Jul ? 04:03:10 10° N 04:07:53 56° WNW 04:12:33 10° SSW visible
06 Jul ? 04:47:33 10° N 04:51:26 25° WNW 04:55:20 10° WSW visible
07 Jul ? 03:53:03 10° N 03:57:50 70° WNW 04:02:35 10° SSW visible
07 Jul ? 05:33:01 10° NNW 05:34:45 12° NW 05:36:28 10° WNW visible
08 Jul ? 04:37:18 10° N 04:41:27 30° WNW 04:45:37 10° WSW visible
09 Jul ? 03:42:56 10° NNE 03:47:46 85° WNW 03:52:34 10° SSW visible
09 Jul ? 05:22:19 10° NNW 05:24:50 14° NW 05:27:20 10° W visible
